sat.trackr.live / text

‹ back to catalog

STARLINK-33606

NORAD 63421 · 2025-065Y

PAYLOAD ACTIVE UNKNOWN

§ Identity

Operator
Country
US
Launch date
2025-03-31
Launch site
AFETR
Launch vehicle
Mass (kg)
RCS (m²)

Purposes: comms

External: N2YO · Heavens-Above · Gunter

§ Orbital elements

Epoch: 2026-09-20T21:19:56.620992Z

Period
94.27 min
Inclination
43.0015°
Eccentricity
0.0003262
Mean motion
15.27587755 rev/d
Perigee alt
480.8 km
Apogee alt
485.3 km
Semi-major
6,861.2 km
B*
2.3677e-4
RAAN
84.5920°
Arg perigee
246.7028°
Mean anomaly
113.3481°
Rev number
8,269

§ Raw data

STARLINK-336061 63421U 25065Y   26263.88884978  .00006260  00000+0  23677-3 0  99942 63421  43.0015  84.5920 0003262 246.7028 113.3481 15.27587755 82699

JSON: /api/v1/satellites/63421 · /tle

For live sub-satellite position, see the globe view (requires WebGL).

§ Visibility from observer

Set your observer location to see the next 7 days of passes ≥ 10°. The values pass through the URL so the page stays shareable.

No JS? Fill the form by hand. The geolocation button needs JavaScript.